Location: Newark
(10.6500°N, 71.6000°W)
Time: 09:11:22
(UTC+00:00)

LightSail 2 - Visible Passes

Search period start: 15 October 2019 00:00
Search period end: 25 October 2019 00:00
Orbit: 707 x 723 km, 24.0° (Epoch: 14 October)

Date Brightness Start Highest point End Pass type
(mag) Time Alt. Az. Time Alt. Az. Time Alt. Az.
15 Oct 7.7 00:46:35 10° NW 00:47:27 13° NNW 00:47:27 13° NNW visible
15 Oct 7.0 23:48:58 10° NW 23:52:27 18° N 23:53:27 17° NNE visible
16 Oct 7.1 22:51:10 10° NW 22:54:38 18° N 22:58:06 10° NE visible
17 Oct 7.4 00:36:59 10° NW 00:38:26 16° NNW 00:38:26 16° NNW visible
17 Oct 6.8 23:39:29 10° NW 23:43:15 20° N 23:44:27 19° NNE visible
18 Oct 7.0 22:41:54 10° NW 22:45:27 18° N 22:49:00 10° NE visible
19 Oct 7.0 00:27:09 10° NW 00:29:29 22° NNW 00:29:29 22° NNW visible
19 Oct 6.5 23:29:43 10° NW 23:33:58 25° NNE 23:35:34 21° NE visible
21 Oct 6.2 00:17:16 10° NW 00:20:41 35° NNW 00:20:41 35° NNW visible
21 Oct 6.0 23:19:49 10° NW 23:24:32 35° NNE 23:26:52 23° ENE visible
22 Oct 7.8 01:05:03 10° WNW 01:05:53 15° WNW 01:05:53 15° WNW visible
23 Oct 5.2 00:07:27 10° WNW 00:12:08 69° NNW 00:12:08 69° NNW visible
23 Oct 5.4 23:09:54 10° WNW 23:14:57 55° NNE 23:18:27 19° E visible
24 Oct 7.4 00:55:36 10° W 00:57:29 21° W 00:57:29 21° W visible
